Time,TemperatureF,DewpointF,PressureIn,WindDirection,WindDirectionDegrees,WindSpeedMPH,WindSpeedGustMPH,Humidity,HourlyPrecipIn,Conditions,Clouds,dailyrainin,SoftwareType,DateUTC
2013-04-05 00:04:00,45.2,25.1,29.93,WNW,287,0.0,0.0,45,0.00,,,0.00,WeatherCatV1.15B25,2013-04-05 05:04:00,
2013-04-05 00:09:00,44.9,25.4,29.93,WNW,287,0.0,0.0,46,0.00,,,0.00,WeatherCatV1.15B25,2013-04-05 05:09:00,
2013-04-05 00:14:00,44.8,26.3,29.93,WNW,292,0.0,0.0,48,0.00,,,0.00,WeatherCatV1.15B25,2013-04-05 05:14:00,
2013-04-05 00:19:00,44.6,27.1,29.92,NW,304,0.0,0.0,50,0.00,,,0.00,WeatherCatV1.15B25,2013-04-05 05:19:00,
2013-04-05 00:24:00,44.5,27.0,29.92,NW,319,0.0,0.0,50,0.00,,,0.00,WeatherCatV1.15B25,2013-04-05 05:24:00,
2013-04-05 00:29:00,44.2,27.7,29.93,NW,323,0.0,0.0,52,0.00,,,0.00,WeatherCatV1.15B25,2013-04-05 05:29:00,
2013-04-05 00:34:00,44.1,27.6,29.93,NW,323,0.0,0.0,52,0.00,,,0.00,WeatherCatV1.15B25,2013-04-05 05:34:00,
2013-04-05 00:39:00,43.8,27.8,29.93,NNW,332,0.0,0.0,53,0.00,,,0.00,WeatherCatV1.15B25,2013-04-05 05:39:00,
2013-04-05 00:44:00,43.5,28.0,29.93,NNW,333,0.0,0.0,54,0.00,,,0.00,WeatherCatV1.15B25,2013-04-05 05:44:00,
2013-04-05 00:49:00,43.2,27.7,29.93,NNW,330,0.0,0.0,54,0.00,,,0.00,WeatherCatV1.15B25,2013-04-05 05:49:00,
2013-04-05 00:54:00,43.1,28.5,29.93,NW,325,0.0,0.0,56,0.00,,,0.00,WeatherCatV1.15B25,2013-04-05 05:54:00,
2013-04-05 00:59:00,42.8,28.6,29.94,NNW,329,0.0,0.0,57,0.00,,,0.00,WeatherCatV1.15B25,2013-04-05 05:59:00,
2013-04-05 01:04:00,42.6,28.9,29.94,NNW,344,0.0,0.0,58,0.00,,,0.00,WeatherCatV1.15B25,2013-04-05 06:04:00,
2013-04-05 01:09:00,42.3,29.4,29.94,North,352,0.0,0.0,60,0.00,,,0.00,WeatherCatV1.15B25,2013-04-05 06:09:00,
2013-04-05 01:14:00,42.3,30.2,29.94,NNW,333,0.0,0.0,62,0.00,,,0.00,WeatherCatV1.15B25,2013-04-05 06:14:00,
2013-04-05 01:19:00,42.2,30.5,29.94,NNW,340,0.0,0.0,63,0.00,,,0.00,WeatherCatV1.15B25,2013-04-05 06:19:00,
2013-04-05 01:24:00,42.2,30.9,29.94,NNW,329,0.0,0.0,64,0.00,,,0.00,WeatherCatV1.15B25,2013-04-05 06:24:00,
2013-04-05 01:29:00,42.3,31.8,29.94,NNW,335,0.0,0.0,66,0.00,,,0.00,WeatherCatV1.15B25,2013-04-05 06:29:00,
2013-04-05 01:34:00,42.2,32.0,29.94,NNW,339,0.0,0.0,67,0.00,,,0.00,WeatherCatV1.15B25,2013-04-05 06:34:00,
2013-04-05 01:39:00,41.9,32.1,29.94,NW,323,0.0,0.0,68,0.00,,,0.00,WeatherCatV1.15B25,2013-04-05 06:39:00,
2013-04-05 01:44:00,41.8,32.4,29.95,NNW,346,0.0,0.0,69,0.00,,,0.00,WeatherCatV1.15B25,2013-04-05 06:44:00,
2013-04-05 01:49:00,41.5,32.1,29.95,NNW,342,0.0,0.0,69,0.00,,,0.00,WeatherCatV1.15B25,2013-04-05 06:49:00,
2013-04-05 01:54:00,41.3,32.3,29.95,North,350,0.0,0.0,70,0.00,,,0.00,WeatherCatV1.15B25,2013-04-05 06:54:00,
2013-04-05 01:59:00,41.1,32.1,29.95,NNW,342,0.0,0.0,70,0.00,,,0.00,WeatherCatV1.15B25,2013-04-05 06:59:00,
2013-04-05 02:04:00,40.9,32.2,29.95,NNW,333,0.0,0.0,71,0.00,,,0.00,WeatherCatV1.15B25,2013-04-05 07:04:00,
2013-04-05 02:09:00,40.8,32.5,29.95,NW,326,0.0,0.0,72,0.00,,,0.00,WeatherCatV1.15B25,2013-04-05 07:09:00,
2013-04-05 02:14:00,40.8,32.8,29.95,NW,323,0.0,0.0,73,0.00,,,0.00,WeatherCatV1.15B25,2013-04-05 07:14:00,
2013-04-05 02:19:00,40.6,32.6,29.95,NNW,339,0.0,0.0,73,0.00,,,0.00,WeatherCatV1.15B25,2013-04-05 07:19:00,
2013-04-05 02:24:00,40.5,32.5,29.95,NW,318,0.0,0.0,73,0.00,,,0.00,WeatherCatV1.15B25,2013-04-05 07:24:00,
2013-04-05 02:29:00,40.2,32.6,29.95,NNW,339,0.0,1.0,74,0.00,,,0.00,WeatherCatV1.15B25,2013-04-05 07:29:00,
2013-04-05 02:34:00,40.1,32.5,29.95,NNW,342,0.0,0.0,74,0.00,,,0.00,WeatherCatV1.15B25,2013-04-05 07:34:00,
2013-04-05 02:39:00,39.8,32.2,29.95,NNW,344,0.0,0.0,74,0.00,,,0.00,WeatherCatV1.15B25,2013-04-05 07:39:00,
2013-04-05 02:44:00,39.5,32.2,29.95,NNW,332,0.0,1.0,75,0.00,,,0.00,WeatherCatV1.15B25,2013-04-05 07:44:00,
2013-04-05 02:49:00,39.3,32.0,29.95,NNW,332,0.0,0.0,75,0.00,,,0.00,WeatherCatV1.15B25,2013-04-05 07:49:00,
2013-04-05 02:54:00,39.1,32.2,29.95,NNW,335,0.0,0.0,76,0.00,,,0.00,WeatherCatV1.15B25,2013-04-05 07:54:00,
2013-04-05 02:59:00,38.9,32.0,29.96,North,0,0.0,1.0,76,0.00,,,0.00,WeatherCatV1.15B25,2013-04-05 07:59:00,
2013-04-05 03:04:00,38.6,31.7,29.96,North,350,0.0,0.0,76,0.00,,,0.00,WeatherCatV1.15B25,2013-04-05 08:04:00,
2013-04-05 03:09:00,38.5,31.6,29.96,NNW,333,0.0,0.0,76,0.00,,,0.00,WeatherCatV1.15B25,2013-04-05 08:09:00,
2013-04-05 03:14:00,38.2,31.6,29.96,NNW,329,0.0,1.0,77,0.00,,,0.00,WeatherCatV1.15B25,2013-04-05 08:14:00,
2013-04-05 03:19:00,38.0,31.4,29.96,NNW,347,0.0,0.0,77,0.00,,,0.00,WeatherCatV1.15B25,2013-04-05 08:19:00,
2013-04-05 03:24:00,37.9,31.3,29.96,North,1,0.0,0.0,77,0.00,,,0.00,WeatherCatV1.15B25,2013-04-05 08:24:00,
2013-04-05 03:29:00,37.6,31.1,29.96,NNW,333,0.0,0.0,77,0.00,,,0.00,WeatherCatV1.15B25,2013-04-05 08:29:00,
2013-04-05 03:34:00,37.5,31.3,29.97,North,356,1.0,1.0,78,0.00,,,0.00,WeatherCatV1.15B25,2013-04-05 08:34:00,
2013-04-05 03:39:00,37.3,31.1,29.97,NNW,342,0.0,0.0,78,0.00,,,0.00,WeatherCatV1.15B25,2013-04-05 08:39:00,
2013-04-05 03:44:00,37.3,31.1,29.97,NNW,337,0.0,1.0,78,0.00,,,0.00,WeatherCatV1.15B25,2013-04-05 08:44:00,
2013-04-05 03:49:00,37.5,31.3,29.97,NNW,340,0.0,0.0,78,0.00,,,0.00,WeatherCatV1.15B25,2013-04-05 08:49:00,
2013-04-05 03:54:00,37.5,31.3,29.97,NNW,339,0.0,0.0,78,0.00,,,0.00,WeatherCatV1.15B25,2013-04-05 08:54:00,
2013-04-05 03:59:00,37.3,31.1,29.97,NNW,340,0.0,0.0,78,0.00,,,0.00,WeatherCatV1.15B25,2013-04-05 08:59:00,
2013-04-05 04:04:00,37.3,31.1,29.97,NNW,344,0.0,0.0,78,0.00,,,0.00,WeatherCatV1.15B25,2013-04-05 09:04:00,
2013-04-05 04:09:00,37.3,31.1,29.97,NNW,339,0.0,0.0,78,0.00,,,0.00,WeatherCatV1.15B25,2013-04-05 09:09:00,
2013-04-05 04:14:00,37.3,31.1,29.98,NNW,336,0.0,0.0,78,0.00,,,0.00,WeatherCatV1.15B25,2013-04-05 09:14:00,
2013-04-05 04:19:00,37.2,31.0,29.98,North,350,0.0,1.0,78,0.00,,,0.00,WeatherCatV1.15B25,2013-04-05 09:19:00,
2013-04-05 04:24:00,37.2,31.0,29.98,NNW,342,0.0,1.0,78,0.00,,,0.00,WeatherCatV1.15B25,2013-04-05 09:24:00,
2013-04-05 04:29:00,37.0,30.8,29.98,NNW,330,0.0,0.0,78,0.00,,,0.00,WeatherCatV1.15B25,2013-04-05 09:29:00,
2013-04-05 04:34:00,37.0,30.8,29.98,NNW,346,0.0,1.0,78,0.00,,,0.00,WeatherCatV1.15B25,2013-04-05 09:34:00,
2013-04-05 04:39:00,36.9,30.7,29.98,NNW,344,0.0,1.0,78,0.00,,,0.00,WeatherCatV1.15B25,2013-04-05 09:39:00,
2013-04-05 04:44:00,36.8,30.6,29.99,North,357,0.0,0.0,78,0.00,,,0.00,WeatherCatV1.15B25,2013-04-05 09:44:00,
2013-04-05 04:49:00,36.6,30.4,29.99,NNW,333,0.0,0.0,78,0.00,,,0.00,WeatherCatV1.15B25,2013-04-05 09:49:00,
2013-04-05 04:54:00,36.5,30.3,29.99,NW,323,0.0,0.0,78,0.00,,,0.00,WeatherCatV1.15B25,2013-04-05 09:54:00,
2013-04-05 04:59:00,36.2,30.0,29.99,NW,319,1.0,1.0,78,0.00,,,0.00,WeatherCatV1.15B25,2013-04-05 09:59:00,
2013-04-05 05:04:00,36.0,30.1,29.99,NW,322,0.0,0.0,79,0.00,,,0.00,WeatherCatV1.15B25,2013-04-05 10:04:00,
2013-04-05 05:09:00,35.9,30.0,29.99,NNW,346,0.0,0.0,79,0.00,,,0.00,WeatherCatV1.15B25,2013-04-05 10:09:00,
2013-04-05 05:14:00,35.5,29.6,30.00,NNW,340,0.0,0.0,79,0.00,,,0.00,WeatherCatV1.15B25,2013-04-05 10:14:00,
2013-04-05 05:19:00,35.3,29.8,30.00,NNW,340,0.0,0.0,80,0.00,,,0.00,WeatherCatV1.15B25,2013-04-05 10:19:00,
2013-04-05 05:24:00,35.2,29.7,30.00,NNW,339,0.0,0.0,80,0.00,,,0.00,WeatherCatV1.15B25,2013-04-05 10:24:00,
2013-04-05 05:29:00,35.0,29.5,30.00,NW,318,0.0,0.0,80,0.00,,,0.00,WeatherCatV1.15B25,2013-04-05 10:29:00,
2013-04-05 05:34:00,35.0,29.5,30.00,NNW,328,0.0,0.0,80,0.00,,,0.00,WeatherCatV1.15B25,2013-04-05 10:34:00,
2013-04-05 05:39:00,35.0,29.5,30.00,NNW,329,0.0,1.0,80,0.00,,,0.00,WeatherCatV1.15B25,2013-04-05 10:39:00,
2013-04-05 05:44:00,34.9,29.4,30.00,NE,55,0.0,0.0,80,0.00,,,0.00,WeatherCatV1.15B25,2013-04-05 10:44:00,
2013-04-05 05:49:00,34.7,29.5,30.01,North,352,0.0,0.0,81,0.00,,,0.00,WeatherCatV1.15B25,2013-04-05 10:49:00,
2013-04-05 05:54:00,34.6,29.1,30.01,NNW,333,0.0,1.0,80,0.00,,,0.00,WeatherCatV1.15B25,2013-04-05 10:54:00,
2013-04-05 05:59:00,34.3,29.1,30.01,North,349,0.0,0.0,81,0.00,,,0.00,WeatherCatV1.15B25,2013-04-05 10:59:00,
2013-04-05 06:04:00,34.1,28.9,30.02,NNW,330,0.0,1.0,81,0.00,,,0.00,WeatherCatV1.15B25,2013-04-05 11:04:00,
2013-04-05 06:09:00,34.1,28.9,30.02,NNW,340,0.0,0.0,81,0.00,,,0.00,WeatherCatV1.15B25,2013-04-05 11:09:00,
2013-04-05 06:14:00,34.1,28.9,30.02,NNW,337,0.0,0.0,81,0.00,,,0.00,WeatherCatV1.15B25,2013-04-05 11:14:00,
2013-04-05 06:19:00,34.1,28.9,30.02,NNW,340,0.0,0.0,81,0.00,,,0.00,WeatherCatV1.15B25,2013-04-05 11:19:00,
2013-04-05 06:24:00,34.1,28.9,30.02,NNW,342,0.0,1.0,81,0.00,,,0.00,WeatherCatV1.15B25,2013-04-05 11:24:00,
2013-04-05 06:29:00,34.0,28.8,30.02,NNW,339,0.0,0.0,81,0.00,,,0.00,WeatherCatV1.15B25,2013-04-05 11:29:00,
2013-04-05 06:34:00,33.8,28.6,30.03,NNW,336,0.0,0.0,81,0.00,,,0.00,WeatherCatV1.15B25,2013-04-05 11:34:00,
2013-04-05 06:39:00,33.8,28.6,30.03,NNW,335,0.0,0.0,81,0.00,,,0.00,WeatherCatV1.15B25,2013-04-05 11:39:00,
2013-04-05 06:44:00,33.5,28.3,30.03,NNW,333,0.0,0.0,81,0.00,,,0.00,WeatherCatV1.15B25,2013-04-05 11:44:00,
2013-04-05 06:49:00,33.4,28.2,30.04,NNW,335,0.0,0.0,81,0.00,,,0.00,WeatherCatV1.15B25,2013-04-05 11:49:00,
2013-04-05 06:54:00,33.4,28.2,30.04,NNW,335,0.0,0.0,81,0.00,,,0.00,WeatherCatV1.15B25,2013-04-05 11:54:00,
2013-04-05 06:59:00,33.2,28.0,30.04,NNW,335,0.0,0.0,81,0.00,,,0.00,WeatherCatV1.15B25,2013-04-05 11:59:00,
2013-04-05 07:04:00,33.4,28.2,30.04,NNW,335,0.0,0.0,81,0.00,,,0.00,WeatherCatV1.15B25,2013-04-05 12:04:00,
2013-04-05 07:09:00,33.4,28.2,30.04,NNW,335,0.0,0.0,81,0.00,,,0.00,WeatherCatV1.15B25,2013-04-05 12:09:00,
2013-04-05 07:14:00,33.5,28.3,30.04,NNW,335,0.0,0.0,81,0.00,,,0.00,WeatherCatV1.15B25,2013-04-05 12:14:00,
2013-04-05 07:19:00,34.0,28.5,30.05,NNE,31,0.0,0.0,80,0.00,,,0.00,WeatherCatV1.15B25,2013-04-05 12:19:00,
2013-04-05 07:24:00,34.9,29.1,30.05,North,0,0.0,0.0,79,0.00,,,0.00,WeatherCatV1.15B25,2013-04-05 12:24:00,
2013-04-05 07:29:00,35.9,29.4,30.05,North,8,0.0,0.0,77,0.00,,,0.00,WeatherCatV1.15B25,2013-04-05 12:29:00,
2013-04-05 07:34:00,36.9,29.7,30.06,NE,48,0.0,0.0,75,0.00,,,0.00,WeatherCatV1.15B25,2013-04-05 12:34:00,
2013-04-05 07:39:00,37.8,29.6,30.06,NNE,32,0.0,0.0,72,0.00,,,0.00,WeatherCatV1.15B25,2013-04-05 12:39:00,
2013-04-05 07:44:00,38.2,29.3,30.06,North,6,0.0,0.0,70,0.00,,,0.00,WeatherCatV1.15B25,2013-04-05 12:44:00,
2013-04-05 07:49:00,38.6,29.7,30.06,ENE,64,0.0,0.0,70,0.00,,,0.00,WeatherCatV1.15B25,2013-04-05 12:49:00,
2013-04-05 07:54:00,38.8,29.5,30.06,NE,34,0.0,0.0,69,0.00,,,0.00,WeatherCatV1.15B25,2013-04-05 12:54:00,
2013-04-05 07:59:00,38.9,29.6,30.06,East,96,0.0,0.0,69,0.00,,,0.00,WeatherCatV1.15B25,2013-04-05 12:59:00,
2013-04-05 08:04:00,38.9,29.6,30.06,ENE,59,0.0,0.0,69,0.00,,,0.00,WeatherCatV1.15B25,2013-04-05 13:04:00,
2013-04-05 08:09:00,39.1,29.8,30.06,East,97,0.0,0.0,69,0.00,,,0.00,WeatherCatV1.15B25,2013-04-05 13:09:00,
2013-04-05 08:14:00,39.2,29.9,30.07,NE,35,1.0,1.0,69,0.00,,,0.00,WeatherCatV1.15B25,2013-04-05 13:14:00,
2013-04-05 08:19:00,39.3,30.0,30.07,ESE,113,0.0,1.0,69,0.00,,,0.00,WeatherCatV1.15B25,2013-04-05 13:19:00,
2013-04-05 08:24:00,39.6,30.3,30.07,East,97,0.0,0.0,69,0.00,,,0.00,WeatherCatV1.15B25,2013-04-05 13:24:00,
2013-04-05 08:29:00,40.1,30.8,30.07,ESE,113,0.0,1.0,69,0.00,,,0.00,WeatherCatV1.15B25,2013-04-05 13:29:00,
2013-04-05 08:34:00,40.5,30.8,30.07,East,100,0.0,1.0,68,0.00,,,0.00,WeatherCatV1.15B25,2013-04-05 13:34:00,
2013-04-05 08:39:00,40.9,30.1,30.07,ENE,61,0.0,1.0,65,0.00,,,0.00,WeatherCatV1.15B25,2013-04-05 13:39:00,
2013-04-05 08:44:00,41.1,30.2,30.07,East,88,0.0,2.0,65,0.00,,,0.00,WeatherCatV1.15B25,2013-04-05 13:44:00,
2013-04-05 08:49:00,41.5,30.2,30.07,East,90,0.0,0.0,64,0.00,,,0.00,WeatherCatV1.15B25,2013-04-05 13:49:00,
2013-04-05 08:54:00,41.8,29.7,30.07,NE,55,0.0,3.0,62,0.00,,,0.00,WeatherCatV1.15B25,2013-04-05 13:54:00,
2013-04-05 08:59:00,41.9,29.8,30.07,ENE,72,0.0,0.0,62,0.00,,,0.00,WeatherCatV1.15B25,2013-04-05 13:59:00,
2013-04-05 09:04:00,42.2,29.7,30.07,East,85,0.0,1.0,61,0.00,,,0.00,WeatherCatV1.15B25,2013-04-05 14:04:00,
2013-04-05 09:09:00,42.5,30.0,30.07,ENE,69,0.0,1.0,61,0.00,,,0.00,WeatherCatV1.15B25,2013-04-05 14:09:00,
2013-04-05 09:14:00,43.2,30.7,30.08,ENE,73,0.0,3.0,61,0.00,,,0.00,WeatherCatV1.15B25,2013-04-05 14:14:00,
2013-04-05 09:19:00,43.3,29.9,30.08,East,88,0.0,2.0,59,0.00,,,0.00,WeatherCatV1.15B25,2013-04-05 14:19:00,
2013-04-05 09:24:00,43.8,30.4,30.08,ENE,72,0.0,0.0,59,0.00,,,0.00,WeatherCatV1.15B25,2013-04-05 14:24:00,
2013-04-05 09:29:00,44.2,30.4,30.08,NNE,32,0.0,1.0,58,0.00,,,0.00,WeatherCatV1.15B25,2013-04-05 14:29:00,
2013-04-05 09:34:00,44.5,30.7,30.08,NE,34,0.0,1.0,58,0.00,,,0.00,WeatherCatV1.15B25,2013-04-05 14:34:00,
2013-04-05 09:39:00,44.5,30.2,30.08,NE,52,0.0,0.0,57,0.00,,,0.00,WeatherCatV1.15B25,2013-04-05 14:39:00,
2013-04-05 09:44:00,44.9,30.6,30.09,ENE,64,0.0,0.0,57,0.00,,,0.00,WeatherCatV1.15B25,2013-04-05 14:44:00,
2013-04-05 09:49:00,45.4,30.6,30.09,SE,133,0.0,0.0,56,0.00,,,0.00,WeatherCatV1.15B25,2013-04-05 14:49:00,
2013-04-05 09:54:00,45.7,30.5,30.09,NE,51,0.0,0.0,55,0.00,,,0.00,WeatherCatV1.15B25,2013-04-05 14:54:00,
2013-04-05 09:59:00,45.8,30.1,30.09,ESE,121,0.0,0.0,54,0.00,,,0.00,WeatherCatV1.15B25,2013-04-05 14:59:00,
2013-04-05 10:04:00,46.4,30.2,30.09,ESE,117,0.0,0.0,53,0.00,,,0.00,WeatherCatV1.15B25,2013-04-05 15:04:00,
2013-04-05 10:09:00,47.1,31.3,30.09,NE,49,0.0,0.0,54,0.00,,,0.00,WeatherCatV1.15B25,2013-04-05 15:09:00,
2013-04-05 10:14:00,47.9,30.7,30.10,NNW,342,0.0,0.0,51,0.00,,,0.00,WeatherCatV1.15B25,2013-04-05 15:14:00,
2013-04-05 10:19:00,48.3,30.5,30.10,NE,52,0.0,0.0,50,0.00,,,0.00,WeatherCatV1.15B25,2013-04-05 15:19:00,
2013-04-05 10:24:00,48.6,30.8,30.10,SE,138,0.0,0.0,50,0.00,,,0.00,WeatherCatV1.15B25,2013-04-05 15:24:00,
2013-04-05 10:29:00,48.6,30.8,30.10,East,83,0.0,0.0,50,0.00,,,0.00,WeatherCatV1.15B25,2013-04-05 15:29:00,
2013-04-05 10:34:00,48.9,31.6,30.10,SE,138,0.0,0.0,51,0.00,,,0.00,WeatherCatV1.15B25,2013-04-05 15:34:00,
2013-04-05 10:39:00,49.1,30.8,30.10,East,80,0.0,0.0,49,0.00,,,0.00,WeatherCatV1.15B25,2013-04-05 15:39:00,
2013-04-05 10:44:00,49.6,30.2,30.10,NE,52,0.0,0.0,47,0.00,,,0.00,WeatherCatV1.15B25,2013-04-05 15:44:00,
2013-04-05 10:49:00,49.5,29.6,30.10,ENE,71,0.0,0.0,46,0.00,,,0.00,WeatherCatV1.15B25,2013-04-05 15:49:00,
2013-04-05 10:54:00,50.1,30.7,30.10,East,85,0.0,0.0,47,0.00,,,0.00,WeatherCatV1.15B25,2013-04-05 15:54:00,
2013-04-05 10:59:00,50.4,29.9,30.10,ESE,123,0.0,0.0,45,0.00,,,0.00,WeatherCatV1.15B25,2013-04-05 15:59:00,
2013-04-05 11:04:00,50.8,31.3,30.10,ESE,117,0.0,0.0,47,0.00,,,0.00,WeatherCatV1.15B25,2013-04-05 16:04:00,
2013-04-05 11:09:00,51.0,31.5,30.10,SE,143,0.0,0.0,47,0.00,,,0.00,WeatherCatV1.15B25,2013-04-05 16:09:00,
2013-04-05 11:14:00,51.3,31.2,30.10,NE,54,0.0,0.0,46,0.00,,,0.00,WeatherCatV1.15B25,2013-04-05 16:14:00,
2013-04-05 11:19:00,51.4,30.2,30.10,SE,126,0.0,0.0,44,0.00,,,0.00,WeatherCatV1.15B25,2013-04-05 16:19:00,
2013-04-05 11:24:00,51.9,30.7,30.10,ESE,102,0.0,0.0,44,0.00,,,0.00,WeatherCatV1.15B25,2013-04-05 16:24:00,
2013-04-05 11:29:00,52.2,29.8,30.10,East,93,0.0,0.0,42,0.00,,,0.00,WeatherCatV1.15B25,2013-04-05 16:29:00,
2013-04-05 11:34:00,51.7,29.9,30.10,East,97,0.0,0.0,43,0.00,,,0.00,WeatherCatV1.15B25,2013-04-05 16:34:00,
2013-04-05 11:39:00,51.9,28.3,30.10,ENE,73,0.0,0.0,40,0.00,,,0.00,WeatherCatV1.15B25,2013-04-05 16:39:00,
2013-04-05 11:44:00,51.6,27.5,30.09,North,11,0.0,0.0,39,0.00,,,0.00,WeatherCatV1.15B25,2013-04-05 16:44:00,
2013-04-05 11:49:00,52.0,29.6,30.09,NE,55,0.0,0.0,42,0.00,,,0.00,WeatherCatV1.15B25,2013-04-05 16:49:00,
2013-04-05 11:54:00,52.5,30.1,30.09,ESE,113,0.0,0.0,42,0.00,,,0.00,WeatherCatV1.15B25,2013-04-05 16:54:00,
2013-04-05 11:59:00,52.5,28.9,30.09,SSE,158,0.0,0.0,40,0.00,,,0.00,WeatherCatV1.15B25,2013-04-05 16:59:00,
2013-04-05 12:04:00,52.9,29.2,30.09,SE,124,0.0,0.0,40,0.00,,,0.00,WeatherCatV1.15B25,2013-04-05 17:04:00,
2013-04-05 12:09:00,53.3,29.0,30.09,SE,124,0.0,0.0,39,0.00,,,0.00,WeatherCatV1.15B25,2013-04-05 17:09:00,
2013-04-05 12:14:00,53.5,28.5,30.08,SE,127,0.0,0.0,38,0.00,,,0.00,WeatherCatV1.15B25,2013-04-05 17:14:00,
2013-04-05 12:19:00,53.2,26.9,30.08,ESE,107,0.0,0.0,36,0.00,,,0.00,WeatherCatV1.15B25,2013-04-05 17:19:00,
2013-04-05 12:24:00,53.2,27.6,30.08,ESE,107,0.0,0.0,37,0.00,,,0.00,WeatherCatV1.15B25,2013-04-05 17:24:00,
2013-04-05 12:29:00,53.5,29.2,30.08,ENE,76,0.0,0.0,39,0.00,,,0.00,WeatherCatV1.15B25,2013-04-05 17:29:00,
2013-04-05 12:34:00,54.2,27.8,30.08,NNE,21,0.0,1.0,36,0.00,,,0.00,WeatherCatV1.15B25,2013-04-05 17:34:00,
2013-04-05 12:39:00,55.0,29.9,30.08,North,7,0.0,1.0,38,0.00,,,0.00,WeatherCatV1.15B25,2013-04-05 17:39:00,
2013-04-05 12:44:00,55.3,28.8,30.06,East,99,0.0,0.0,36,0.00,,,0.00,WeatherCatV1.15B25,2013-04-05 17:44:00,
2013-04-05 12:49:00,55.3,27.4,30.06,East,82,0.0,0.0,34,0.00,,,0.00,WeatherCatV1.15B25,2013-04-05 17:49:00,
2013-04-05 12:54:00,55.3,26.0,30.06,SE,128,0.0,0.0,32,0.00,,,0.00,WeatherCatV1.15B25,2013-04-05 17:54:00,
2013-04-05 12:59:00,55.0,25.7,30.06,East,85,0.0,0.0,32,0.00,,,0.00,WeatherCatV1.15B25,2013-04-05 17:59:00,
2013-04-05 13:04:00,54.4,24.4,30.06,East,82,0.0,0.0,31,0.00,,,0.00,WeatherCatV1.15B25,2013-04-05 18:04:00,
2013-04-05 13:09:00,54.8,27.7,30.06,NNE,13,0.0,0.0,35,0.00,,,0.00,WeatherCatV1.15B25,2013-04-05 18:09:00,
2013-04-05 13:14:00,55.0,28.5,30.05,ESE,121,0.0,0.0,36,0.00,,,0.00,WeatherCatV1.15B25,2013-04-05 18:14:00,
2013-04-05 13:19:00,55.6,29.1,30.05,NW,313,0.0,1.0,36,0.00,,,0.00,WeatherCatV1.15B25,2013-04-05 18:19:00,
2013-04-05 13:24:00,55.6,25.5,30.05,ENE,62,0.0,0.0,31,0.00,,,0.00,WeatherCatV1.15B25,2013-04-05 18:24:00,
2013-04-05 13:29:00,55.7,25.5,30.05,ENE,75,0.0,0.0,31,0.00,,,0.00,WeatherCatV1.15B25,2013-04-05 18:29:00,
2013-04-05 13:34:00,55.3,22.8,30.05,East,80,0.0,0.0,28,0.00,,,0.00,WeatherCatV1.15B25,2013-04-05 18:34:00,
2013-04-05 13:39:00,55.1,24.2,30.05,ESE,123,0.0,0.0,30,0.00,,,0.00,WeatherCatV1.15B25,2013-04-05 18:39:00,
2013-04-05 13:44:00,55.7,27.0,30.04,North,11,0.0,0.0,33,0.00,,,0.00,WeatherCatV1.15B25,2013-04-05 18:44:00,
2013-04-05 13:49:00,56.3,26.8,30.04,SSE,160,0.0,0.0,32,0.00,,,0.00,WeatherCatV1.15B25,2013-04-05 18:49:00,
2013-04-05 13:54:00,56.0,26.6,30.04,SE,133,0.0,0.0,32,0.00,,,0.00,WeatherCatV1.15B25,2013-04-05 18:54:00,
2013-04-05 13:59:00,55.7,26.3,30.03,SSW,196,0.0,1.0,32,0.00,,,0.00,WeatherCatV1.15B25,2013-04-05 18:59:00,
2013-04-05 14:04:00,56.5,27.0,30.03,NE,44,0.0,0.0,32,0.00,,,0.00,WeatherCatV1.15B25,2013-04-05 19:04:00,
2013-04-05 14:09:00,56.9,25.8,30.03,ESE,114,0.0,0.0,30,0.00,,,0.00,WeatherCatV1.15B25,2013-04-05 19:09:00,
2013-04-05 14:14:00,56.2,23.5,30.03,ESE,123,0.0,1.0,28,0.00,,,0.00,WeatherCatV1.15B25,2013-04-05 19:14:00,
2013-04-05 14:19:00,56.5,27.7,30.03,SE,136,0.0,1.0,33,0.00,,,0.00,WeatherCatV1.15B25,2013-04-05 19:19:00,
2013-04-05 14:24:00,56.3,23.6,30.03,ENE,68,0.0,0.0,28,0.00,,,0.00,WeatherCatV1.15B25,2013-04-05 19:24:00,
2013-04-05 14:29:00,56.5,27.0,30.03,NNE,30,0.0,0.0,32,0.00,,,0.00,WeatherCatV1.15B25,2013-04-05 19:29:00,
2013-04-05 14:34:00,57.0,25.1,30.03,SE,128,0.0,0.0,29,0.00,,,0.00,WeatherCatV1.15B25,2013-04-05 19:34:00,
2013-04-05 14:39:00,57.2,23.5,30.03,SE,127,0.0,0.0,27,0.00,,,0.00,WeatherCatV1.15B25,2013-04-05 19:39:00,
2013-04-05 14:44:00,57.0,24.2,30.02,SE,130,0.0,0.0,28,0.00,,,0.00,WeatherCatV1.15B25,2013-04-05 19:44:00,
2013-04-05 14:49:00,57.0,23.4,30.02,SE,128,0.0,0.0,27,0.00,,,0.00,WeatherCatV1.15B25,2013-04-05 19:49:00,
2013-04-05 14:54:00,57.0,24.2,30.02,ESE,113,0.0,0.0,28,0.00,,,0.00,WeatherCatV1.15B25,2013-04-05 19:54:00,
2013-04-05 14:59:00,57.0,24.2,30.02,ESE,121,0.0,0.0,28,0.00,,,0.00,WeatherCatV1.15B25,2013-04-05 19:59:00,
2013-04-05 15:04:00,57.2,24.4,30.02,WNW,289,0.0,0.0,28,0.00,,,0.00,WeatherCatV1.15B25,2013-04-05 20:04:00,
2013-04-05 15:09:00,57.0,22.5,30.02,NW,308,0.0,0.0,26,0.00,,,0.00,WeatherCatV1.15B25,2013-04-05 20:09:00,
2013-04-05 15:14:00,57.2,24.4,30.02,North,3,0.0,0.0,28,0.00,,,0.00,WeatherCatV1.15B25,2013-04-05 20:14:00,
2013-04-05 15:19:00,56.9,23.3,30.02,NW,313,0.0,0.0,27,0.00,,,0.00,WeatherCatV1.15B25,2013-04-05 20:19:00,
2013-04-05 15:24:00,56.9,23.3,30.02,NNE,24,0.0,0.0,27,0.00,,,0.00,WeatherCatV1.15B25,2013-04-05 20:24:00,
2013-04-05 15:29:00,56.7,23.1,30.02,NW,315,0.0,0.0,27,0.00,,,0.00,WeatherCatV1.15B25,2013-04-05 20:29:00,
2013-04-05 15:34:00,56.7,24.0,30.02,NW,326,0.0,1.0,28,0.00,,,0.00,WeatherCatV1.15B25,2013-04-05 20:34:00,
2013-04-05 15:39:00,57.0,25.9,30.02,NNW,336,0.0,0.0,30,0.00,,,0.00,WeatherCatV1.15B25,2013-04-05 20:39:00,
2013-04-05 15:44:00,56.9,23.3,30.01,SE,138,0.0,1.0,27,0.00,,,0.00,WeatherCatV1.15B25,2013-04-05 20:44:00,
2013-04-05 15:49:00,57.0,22.5,30.01,ESE,119,0.0,0.0,26,0.00,,,0.00,WeatherCatV1.15B25,2013-04-05 20:49:00,
2013-04-05 15:54:00,57.0,23.4,30.01,ESE,120,0.0,0.0,27,0.00,,,0.00,WeatherCatV1.15B25,2013-04-05 20:54:00,
2013-04-05 15:59:00,56.9,22.4,30.00,ESE,120,0.0,0.0,26,0.00,,,0.00,WeatherCatV1.15B25,2013-04-05 20:59:00,
2013-04-05 16:04:00,57.2,23.5,30.00,SSE,167,0.0,0.0,27,0.00,,,0.00,WeatherCatV1.15B25,2013-04-05 21:04:00,
2013-04-05 16:09:00,57.0,23.4,30.00,SSW,213,0.0,0.0,27,0.00,,,0.00,WeatherCatV1.15B25,2013-04-05 21:09:00,
2013-04-05 16:14:00,56.7,22.2,30.00,SSW,209,0.0,0.0,26,0.00,,,0.00,WeatherCatV1.15B25,2013-04-05 21:14:00,
2013-04-05 16:19:00,56.6,23.9,30.00,South,172,0.0,1.0,28,0.00,,,0.00,WeatherCatV1.15B25,2013-04-05 21:19:00,
2013-04-05 16:24:00,56.7,23.1,30.00,SSE,164,0.0,0.0,27,0.00,,,0.00,WeatherCatV1.15B25,2013-04-05 21:24:00,
2013-04-05 16:29:00,56.9,21.5,30.00,SE,141,0.0,0.0,25,0.00,,,0.00,WeatherCatV1.15B25,2013-04-05 21:29:00,
2013-04-05 16:34:00,56.7,21.3,30.00,North,4,0.0,0.0,25,0.00,,,0.00,WeatherCatV1.15B25,2013-04-05 21:34:00,
2013-04-05 16:39:00,56.9,23.3,30.00,SE,143,0.0,0.0,27,0.00,,,0.00,WeatherCatV1.15B25,2013-04-05 21:39:00,
2013-04-05 16:44:00,57.0,21.5,30.00,SE,145,0.0,0.0,25,0.00,,,0.00,WeatherCatV1.15B25,2013-04-05 21:44:00,
2013-04-05 16:49:00,57.2,21.7,30.00,ESE,119,0.0,0.0,25,0.00,,,0.00,WeatherCatV1.15B25,2013-04-05 21:49:00,
2013-04-05 16:54:00,57.2,21.7,30.00,ESE,121,0.0,0.0,25,0.00,,,0.00,WeatherCatV1.15B25,2013-04-05 21:54:00,
2013-04-05 16:59:00,57.0,22.5,30.00,SE,144,0.0,0.0,26,0.00,,,0.00,WeatherCatV1.15B25,2013-04-05 21:59:00,
2013-04-05 17:04:00,56.9,22.4,30.00,SE,145,0.0,0.0,26,0.00,,,0.00,WeatherCatV1.15B25,2013-04-05 22:04:00,
2013-04-05 17:09:00,56.9,21.5,30.00,SE,127,0.0,0.0,25,0.00,,,0.00,WeatherCatV1.15B25,2013-04-05 22:09:00,
2013-04-05 17:14:00,56.9,20.5,30.00,ESE,116,0.0,0.0,24,0.00,,,0.00,WeatherCatV1.15B25,2013-04-05 22:14:00,
2013-04-05 17:19:00,56.9,21.5,30.00,ESE,116,0.0,0.0,25,0.00,,,0.00,WeatherCatV1.15B25,2013-04-05 22:19:00,
2013-04-05 17:24:00,56.7,20.3,30.00,ESE,116,0.0,0.0,24,0.00,,,0.00,WeatherCatV1.15B25,2013-04-05 22:24:00,
2013-04-05 17:29:00,56.6,21.2,30.00,ESE,120,0.0,0.0,25,0.00,,,0.00,WeatherCatV1.15B25,2013-04-05 22:29:00,
2013-04-05 17:34:00,56.5,22.0,30.00,ESE,120,0.0,0.0,26,0.00,,,0.00,WeatherCatV1.15B25,2013-04-05 22:34:00,
2013-04-05 17:39:00,56.3,20.9,30.00,NE,51,0.0,1.0,25,0.00,,,0.00,WeatherCatV1.15B25,2013-04-05 22:39:00,
2013-04-05 17:44:00,56.3,20.9,30.01,NE,55,0.0,1.0,25,0.00,,,0.00,WeatherCatV1.15B25,2013-04-05 22:44:00,
2013-04-05 17:49:00,56.2,20.9,30.01,NE,37,0.0,0.0,25,0.00,,,0.00,WeatherCatV1.15B25,2013-04-05 22:49:00,
2013-04-05 17:54:00,56.0,20.7,30.01,ENE,65,0.0,0.0,25,0.00,,,0.00,WeatherCatV1.15B25,2013-04-05 22:54:00,
2013-04-05 17:59:00,55.9,20.6,30.01,North,7,0.0,0.0,25,0.00,,,0.00,WeatherCatV1.15B25,2013-04-05 22:59:00,
2013-04-05 18:04:00,55.7,21.4,30.01,North,8,0.0,0.0,26,0.00,,,0.00,WeatherCatV1.15B25,2013-04-05 23:04:00,
2013-04-05 18:09:00,55.7,21.4,30.01,North,11,0.0,0.0,26,0.00,,,0.00,WeatherCatV1.15B25,2013-04-05 23:09:00,
2013-04-05 18:14:00,55.9,21.5,30.01,North,11,0.0,0.0,26,0.00,,,0.00,WeatherCatV1.15B25,2013-04-05 23:14:00,
2013-04-05 18:19:00,55.9,20.6,30.01,NNE,17,0.0,0.0,25,0.00,,,0.00,WeatherCatV1.15B25,2013-04-05 23:19:00,
2013-04-05 18:24:00,55.7,22.2,30.01,NNE,20,0.0,0.0,27,0.00,,,0.00,WeatherCatV1.15B25,2013-04-05 23:24:00,
2013-04-05 18:29:00,55.7,21.4,30.00,NNE,25,0.0,0.0,26,0.00,,,0.00,WeatherCatV1.15B25,2013-04-05 23:29:00,
2013-04-05 18:34:00,55.6,20.3,30.00,ENE,62,0.0,0.0,25,0.00,,,0.00,WeatherCatV1.15B25,2013-04-05 23:34:00,
2013-04-05 18:39:00,55.4,22.0,30.00,ENE,64,0.0,0.0,27,0.00,,,0.00,WeatherCatV1.15B25,2013-04-05 23:39:00,
2013-04-05 18:44:00,55.3,21.9,30.00,NNE,23,0.0,0.0,27,0.00,,,0.00,WeatherCatV1.15B25,2013-04-05 23:44:00,
2013-04-05 18:49:00,55.3,22.8,30.00,NNE,21,0.0,0.0,28,0.00,,,0.00,WeatherCatV1.15B25,2013-04-05 23:49:00,
2013-04-05 18:54:00,55.1,21.7,30.00,NNE,32,0.0,0.0,27,0.00,,,0.00,WeatherCatV1.15B25,2013-04-05 23:54:00,
2013-04-05 18:59:00,55.0,22.5,30.00,NE,55,0.0,0.0,28,0.00,,,0.00,WeatherCatV1.15B25,2013-04-05 23:59:00,
2013-04-05 19:04:00,54.8,21.5,30.00,ENE,75,0.0,0.0,27,0.00,,,0.00,WeatherCatV1.15B25,2013-04-06 00:04:00,
2013-04-05 19:09:00,54.5,21.2,30.00,NNE,31,0.0,0.0,27,0.00,,,0.00,WeatherCatV1.15B25,2013-04-06 00:09:00,
2013-04-05 19:14:00,54.4,21.1,29.99,NE,51,0.0,0.0,27,0.00,,,0.00,WeatherCatV1.15B25,2013-04-06 00:14:00,
2013-04-05 19:19:00,54.1,21.7,29.99,NE,51,0.0,0.0,28,0.00,,,0.00,WeatherCatV1.15B25,2013-04-06 00:19:00,
2013-04-05 19:24:00,53.8,20.6,29.99,NE,45,0.0,0.0,27,0.00,,,0.00,WeatherCatV1.15B25,2013-04-06 00:24:00,
2013-04-05 19:29:00,53.5,21.2,29.99,NE,49,0.0,0.0,28,0.00,,,0.00,WeatherCatV1.15B25,2013-04-06 00:29:00,
2013-04-05 19:34:00,53.2,21.8,29.99,ENE,65,0.0,0.0,29,0.00,,,0.00,WeatherCatV1.15B25,2013-04-06 00:34:00,
2013-04-05 19:39:00,52.9,22.3,29.99,SE,127,0.0,0.0,30,0.00,,,0.00,WeatherCatV1.15B25,2013-04-06 00:39:00,
2013-04-05 19:44:00,52.8,23.0,29.98,SE,145,0.0,0.0,31,0.00,,,0.00,WeatherCatV1.15B25,2013-04-06 00:44:00,
2013-04-05 19:49:00,52.5,23.5,29.98,SE,140,0.0,0.0,32,0.00,,,0.00,WeatherCatV1.15B25,2013-04-06 00:49:00,
2013-04-05 19:54:00,52.2,24.0,29.98,ESE,120,0.0,0.0,33,0.00,,,0.00,WeatherCatV1.15B25,2013-04-06 00:54:00,
2013-04-05 19:59:00,52.0,23.8,29.99,SE,133,0.0,0.0,33,0.00,,,0.00,WeatherCatV1.15B25,2013-04-06 00:59:00,
2013-04-05 20:04:00,52.0,23.8,29.99,SE,126,0.0,0.0,33,0.00,,,0.00,WeatherCatV1.15B25,2013-04-06 01:04:00,
2013-04-05 20:09:00,52.0,23.1,29.99,ESE,112,0.0,0.0,32,0.00,,,0.00,WeatherCatV1.15B25,2013-04-06 01:09:00,
2013-04-05 20:14:00,52.0,22.3,29.98,ESE,103,0.0,0.0,31,0.00,,,0.00,WeatherCatV1.15B25,2013-04-06 01:14:00,
2013-04-05 20:19:00,51.9,22.2,29.98,SE,130,0.0,0.0,31,0.00,,,0.00,WeatherCatV1.15B25,2013-04-06 01:19:00,
2013-04-05 20:24:00,51.6,22.0,29.98,East,97,0.0,0.0,31,0.00,,,0.00,WeatherCatV1.15B25,2013-04-06 01:24:00,
2013-04-05 20:29:00,51.3,20.9,29.98,East,89,0.0,0.0,30,0.00,,,0.00,WeatherCatV1.15B25,2013-04-06 01:29:00,
2013-04-05 20:34:00,50.8,20.5,29.98,SE,126,0.0,0.0,30,0.00,,,0.00,WeatherCatV1.15B25,2013-04-06 01:34:00,
2013-04-05 20:39:00,50.5,21.0,29.98,ESE,107,0.0,0.0,31,0.00,,,0.00,WeatherCatV1.15B25,2013-04-06 01:39:00,
2013-04-05 20:44:00,50.2,22.2,29.98,SE,134,0.0,0.0,33,0.00,,,0.00,WeatherCatV1.15B25,2013-04-06 01:44:00,
2013-04-05 20:49:00,49.8,21.9,29.98,SE,130,0.0,0.0,33,0.00,,,0.00,WeatherCatV1.15B25,2013-04-06 01:49:00,
2013-04-05 20:54:00,49.4,22.2,29.98,ESE,120,0.0,0.0,34,0.00,,,0.00,WeatherCatV1.15B25,2013-04-06 01:54:00,
2013-04-05 20:59:00,48.8,21.7,29.99,East,99,0.0,0.0,34,0.00,,,0.00,WeatherCatV1.15B25,2013-04-06 01:59:00,
2013-04-05 21:04:00,48.2,21.8,29.99,ESE,112,0.0,0.0,35,0.00,,,0.00,WeatherCatV1.15B25,2013-04-06 02:04:00,
2013-04-05 21:09:00,47.7,22.7,29.99,ESE,102,0.0,0.0,37,0.00,,,0.00,WeatherCatV1.15B25,2013-04-06 02:09:00,
2013-04-05 21:14:00,47.1,22.2,29.99,East,80,0.0,0.0,37,0.00,,,0.00,WeatherCatV1.15B25,2013-04-06 02:14:00,
2013-04-05 21:19:00,46.8,22.5,29.99,ESE,117,0.0,0.0,38,0.00,,,0.00,WeatherCatV1.15B25,2013-04-06 02:19:00,
2013-04-05 21:24:00,46.4,22.2,29.99,SE,127,0.0,0.0,38,0.00,,,0.00,WeatherCatV1.15B25,2013-04-06 02:24:00,
2013-04-05 21:29:00,46.1,22.5,29.99,SE,130,0.0,0.0,39,0.00,,,0.00,WeatherCatV1.15B25,2013-04-06 02:29:00,
2013-04-05 21:34:00,46.0,22.4,29.99,East,97,0.0,0.0,39,0.00,,,0.00,WeatherCatV1.15B25,2013-04-06 02:34:00,
2013-04-05 21:39:00,45.8,21.7,29.99,ESE,116,0.0,0.0,38,0.00,,,0.00,WeatherCatV1.15B25,2013-04-06 02:39:00,
2013-04-05 21:44:00,45.7,21.6,29.99,ESE,119,0.0,0.0,38,0.00,,,0.00,WeatherCatV1.15B25,2013-04-06 02:44:00,
2013-04-05 21:49:00,45.7,20.9,29.99,ESE,103,0.0,0.0,37,0.00,,,0.00,WeatherCatV1.15B25,2013-04-06 02:49:00,
2013-04-05 21:54:00,45.4,21.3,29.99,NE,35,0.0,0.0,38,0.00,,,0.00,WeatherCatV1.15B25,2013-04-06 02:54:00,
2013-04-05 21:59:00,45.2,20.5,29.98,ESE,119,0.0,0.0,37,0.00,,,0.00,WeatherCatV1.15B25,2013-04-06 02:59:00,
2013-04-05 22:04:00,45.1,21.0,29.98,East,92,0.0,0.0,38,0.00,,,0.00,WeatherCatV1.15B25,2013-04-06 03:04:00,
2013-04-05 22:09:00,44.9,20.8,29.98,ESE,110,0.0,0.0,38,0.00,,,0.00,WeatherCatV1.15B25,2013-04-06 03:09:00,
2013-04-05 22:14:00,44.8,20.8,29.97,ESE,117,0.0,0.0,38,0.00,,,0.00,WeatherCatV1.15B25,2013-04-06 03:14:00,
2013-04-05 22:19:00,44.6,21.2,29.97,SE,131,0.0,0.0,39,0.00,,,0.00,WeatherCatV1.15B25,2013-04-06 03:19:00,
2013-04-05 22:24:00,44.3,20.9,29.97,SE,141,0.0,0.0,39,0.00,,,0.00,WeatherCatV1.15B25,2013-04-06 03:24:00,
2013-04-05 22:29:00,44.2,20.8,29.97,SE,140,0.0,0.0,39,0.00,,,0.00,WeatherCatV1.15B25,2013-04-06 03:29:00,
2013-04-05 22:34:00,44.1,21.3,29.97,ESE,104,0.0,0.0,40,0.00,,,0.00,WeatherCatV1.15B25,2013-04-06 03:34:00,
2013-04-05 22:39:00,43.9,21.7,29.97,ESE,116,0.0,0.0,41,0.00,,,0.00,WeatherCatV1.15B25,2013-04-06 03:39:00,
2013-04-05 22:44:00,43.8,22.2,29.97,ESE,106,0.0,0.0,42,0.00,,,0.00,WeatherCatV1.15B25,2013-04-06 03:44:00,
2013-04-05 22:49:00,43.6,22.6,29.97,ENE,65,0.0,0.0,43,0.00,,,0.00,WeatherCatV1.15B25,2013-04-06 03:49:00,
2013-04-05 22:54:00,43.3,22.9,29.97,ESE,121,0.0,0.0,44,0.00,,,0.00,WeatherCatV1.15B25,2013-04-06 03:54:00,
2013-04-05 22:59:00,43.1,22.7,29.97,ESE,104,0.0,0.0,44,0.00,,,0.00,WeatherCatV1.15B25,2013-04-06 03:59:00,
2013-04-05 23:00:00,43.1,22.7,29.97,ESE,120,0.0,0.0,44,0.00,,,0.00,WeatherCatV1.15B25,2013-04-06 04:00:00,
2013-04-05 23:04:00,42.9,23.0,29.97,SE,124,0.0,0.0,45,0.00,,,0.00,WeatherCatV1.15B25,2013-04-06 04:04:00,
2013-04-05 23:09:00,42.8,22.9,29.97,ESE,120,0.0,0.0,45,0.00,,,0.00,WeatherCatV1.15B25,2013-04-06 04:09:00,
2013-04-05 23:14:00,42.8,23.5,29.97,ENE,65,0.0,0.0,46,0.00,,,0.00,WeatherCatV1.15B25,2013-04-06 04:14:00,
2013-04-05 23:19:00,42.6,23.3,29.97,SSE,158,0.0,1.0,46,0.00,,,0.00,WeatherCatV1.15B25,2013-04-06 04:19:00,
2013-04-05 23:24:00,42.5,23.2,29.97,ESE,109,0.0,0.0,46,0.00,,,0.00,WeatherCatV1.15B25,2013-04-06 04:24:00,
2013-04-05 23:29:00,42.3,23.5,29.97,East,93,0.0,1.0,47,0.00,,,0.00,WeatherCatV1.15B25,2013-04-06 04:29:00,
2013-04-05 23:34:00,42.1,23.3,29.97,East,79,0.0,0.0,47,0.00,,,0.00,WeatherCatV1.15B25,2013-04-06 04:34:00,
2013-04-05 23:39:00,42.1,23.8,29.97,East,79,0.0,0.0,48,0.00,,,0.00,WeatherCatV1.15B25,2013-04-06 04:39:00,
2013-04-05 23:44:00,41.9,24.1,29.97,SE,128,0.0,0.0,49,0.00,,,0.00,WeatherCatV1.15B25,2013-04-06 04:44:00,
2013-04-05 23:49:00,41.8,23.6,29.97,ESE,106,0.0,0.0,48,0.00,,,0.00,WeatherCatV1.15B25,2013-04-06 04:49:00,
2013-04-05 23:54:00,41.8,24.1,29.97,SE,131,0.0,0.0,49,0.00,,,0.00,WeatherCatV1.15B25,2013-04-06 04:54:00,
2013-04-05 23:59:00,41.8,23.6,29.96,East,100,0.0,0.0,48,0.00,,,0.00,WeatherCatV1.15B25,2013-04-06 04:59:00,